Find NAOS

NORAD ID: 65317 Int'l Des: 2025-188 Owner: LUXDD/LUXEO Country: L operational
LEOCIRCULARRETROGRADESSO

Live Position

Loading 3D Globe...

About NAOS

Description loading...

Upcoming Passes

Passes for default location (London). Set your location on the main map for personalized predictions.

Altitude History

Loading altitude history...

Two-Line Element Set

1 65317U 25188C 26106.21613133 .00005854 00000-0 15574-3 0 9998
2 65317 97.2057 182.6107 0001625 10.3514 349.7765 15.38595551 35733
Epoch: Apr 16, 2026 • Age: 12 hours

Current Status

Altitude 455.5 km
Velocity 7.64 km/s
Sub-Earth Point -6.25°S, 96.34°W
Launch Date Aug 26, 2025
Age 0.6 years
Type other

Technical Details

Classification Payload
Mass 645.00 kg
Dry Mass 645.00 kg
Total Mass 645.00 kg
Length 3.00 m
Diameter 1.80 m
Span 10.00 m
Shape Hex Cyl + 2 pan
Manufacturer OHBI
Bus Type NAOS
Phase Status In Orbit
Owner/State LUXDD/LUXEO/L

Most Searched